TANYUSHA 2 (42912 NORAD) Tracking and Keplerian Element Data

This shows tracking and keplerian element data for the satellite.

Feedback or suggestion? Click here.




ElementValue
Catalog42912
NameTANYUSHA 2
Epoch Orbit7602
Epoch Day350.71802147
Epoch Year2018
RAAN156.5298
Inclination51.6387
Eccentricity0.0005276
Argument of Perigee184.2352
Mean Anonmoly264.5945
Mean Motion15.72339933
Decay Rate0.00023796
L11 42912U 98067NB 18350.71802147 .00023796 00000-0 17953-3 0 9990
L22 42912 51.6387 156.5298 0005276 184.2352 264.5945 15.72339933 76026

Live tracking and technical data element details for TANYUSHA 2 (NORAD 42912). TANYUSHA 2 can be tracked NOW for your location showing map with azimuth and elevation plus other details from your city location.

Track the satellite on the map from your city or location and see movement details for azimuth, elevation, latitude, longitude, range, height, and movement on the map or in text.







IsCatalogInMostPopularTable: catalog: 42912, numindb: 156
Update: records affected: 1



GetName: 42912 TANYUSHA 2

Hit Count: updated at: Tue, 18 Dec 2018 21:29:52 GMT